User: anonymous   Login
Location: Bothwell
(42.3833°S, 147.0000°E)
Time: 01:30:08
(UTC+10:00)
Language:

BUGSAT 1 - Orbit

View from above orbital plane
View from above orbital plane
View from above satellite
View from above satellite

Ground track
Ground track

The orbit data is extracted from the following two-line orbital elements,

1 40014U 14033E   22273.95341485  .00002546  00000-0  22431-3 0  9997
2 40014  98.1466 276.7113 0031681  50.3895 310.0116 14.97063970451920
Epoch (UTC): 30 September 2022 22:52:55
Eccentricity: 0.0031681
inclination: 98.1466°
perigee height: 554 km
apogee height: 598 km
right ascension of ascending node: 276.7113°
argument of perigee: 50.3895°
revolutions per day: 14.97063970
mean anomaly at epoch: 310.0116°
orbit number at epoch: 45192

The dashed part of the orbit path shows where the satellite is in the earth's shadow,  

DLR